Date_and_time,latitude,longitude,wind_speed,RelWindDirFrom,WindDirFrom,air_pressure,air_temperature,relative_humidity,Temp,platform_speed_wrt_ground,air_pressure_at_mean_sea_level,platform_orientation
2019-11-22 00:00,50.6304483333333,-96.9807683333333,5.4,7.2,208,993.61,-9.4,80,0.95,0.0,1022.48,131.7
2019-11-22 00:10,50.6304483333333,-96.9807683333333,5.9,7.4,206,993.58,-9.5,81,0.95,0.0,1022.48,131.7
2019-11-22 00:20,50.6304483333333,-96.9807683333333,6.2,7.8,200,993.49,-9.8,82,0.95,0.0,1022.42,131.7
2019-11-22 00:30,50.6304466666667,-96.9807683333333,5.9,7.3,202,993.48,-9.9,82,0.96,0.0,1022.45,131.7
2019-11-22 00:40,50.6304466666667,-96.9807666666667,5.2,6.7,200,993.50,-10.1,82,0.96,0.0,1022.49,131.7
2019-11-22 00:50,50.6304466666667,-96.9807666666667,5.6,7.0,186,993.33,-10.3,83,0.96,0.0,1022.34,131.7
2019-11-22 01:00,50.630445,-96.9807733333333,6.1,7.3,183,993.28,-10.6,84,0.96,0.0,1022.32,192.6
2019-11-22 01:10,50.6304433333333,-96.980765,7.1,8.5,175,993.06,-10.9,85,0.97,0.0,1022.13,192.6
2019-11-22 01:20,50.630445,-96.9807716666667,7.4,8.6,176,992.97,-11.1,85,0.96,0.0,1022.05,192.6
2019-11-22 01:30,50.6304433333333,-96.98077,7.8,9.1,178,992.88,-11.2,86,0.97,0.0,1021.98,192.6
2019-11-22 01:40,50.6304416666667,-96.9807683333333,7.7,9.2,179,992.87,-11.2,86,0.97,0.0,1021.98,192.6
2019-11-22 01:50,50.63044,-96.9807666666667,8.5,10.2,178,992.75,-11.2,87,0.97,0.0,1021.86,192.6
2019-11-22 02:00,50.63044,-96.9807666666667,9.4,11.4,177,992.62,-11.3,87,0.97,0.0,1021.74,90.0
2019-11-22 02:10,50.6304416666667,-96.9807666666667,8.9,11.0,181,992.46,-11.3,86,0.97,0.0,1021.59,90.0
2019-11-22 02:20,50.6304416666667,-96.98077,7.9,9.3,183,992.48,-11.3,86,0.97,0.0,1021.62,90.0
2019-11-22 02:30,50.6304466666667,-96.9807766666667,8.2,11.0,184,992.40,-11.2,85,0.97,0.0,1021.53,90.0
2019-11-22 02:40,50.630445,-96.9807583333333,11.2,15.9,194,992.28,-10.9,84,0.97,0.0,1021.41,90.0
2019-11-22 02:50,50.6304416666667,-96.980765,10.6,14.0,193,992.28,-11.0,84,0.97,0.0,1021.43,90.0
2019-11-22 03:00,50.6304366666667,-96.9807816666667,11.0,13.6,191,992.18,-11.2,85,0.97,0.0,1021.36,229.4
2019-11-22 03:10,50.6304366666667,-96.9807733333333,11.3,15.0,193,992.00,-11.4,85,0.97,0.0,1021.19,229.4
2019-11-22 03:20,50.6304416666667,-96.980735,10.7,13.6,192,991.79,-11.5,86,0.97,0.0,1021.00,229.4
2019-11-22 03:30,50.6304533333333,-96.9807783333333,11.4,14.2,193,991.63,-11.7,85,0.97,0.0,1020.84,229.4
2019-11-22 03:40,50.63045,-96.9807716666667,10.9,13.7,192,991.43,-11.9,86,0.97,0.0,1020.64,229.4
2019-11-22 03:50,50.6304466666667,-96.980765,11.5,14.3,186,991.13,-11.9,86,0.97,0.0,1020.34,229.4
2019-11-22 04:00,50.6304466666667,-96.9807666666667,11.9,14.2,185,990.98,-11.9,86,0.97,0.0,1020.19,12.6
2019-11-22 04:10,50.630445,-96.9807683333333,12.4,14.7,186,990.70,-11.9,85,0.97,0.0,1019.90,12.6
2019-11-22 04:20,50.6304433333333,-96.98077,12.7,17.3,188,990.60,-11.8,84,0.97,0.0,1019.78,12.6
2019-11-22 04:30,50.6304433333333,-96.98077,13.7,17.0,189,990.44,-11.7,83,0.98,0.0,1019.60,12.6
2019-11-22 04:40,50.6304416666667,-96.9807716666667,13.6,17.7,193,990.34,-11.6,81,0.98,0.0,1019.50,12.6
2019-11-22 04:50,50.63044,-96.9807733333333,14.1,17.6,194,990.18,-11.6,80,0.98,0.0,1019.34,12.6
2019-11-22 05:00,50.6304416666667,-96.9807866666667,13.3,16.5,196,990.12,-11.7,79,0.99,0.0,1019.29,270.0
2019-11-22 05:10,50.6304366666667,-96.9807616666667,14.0,18.1,194,989.94,-11.6,78,0.99,0.0,1019.12,270.0
2019-11-22 05:20,50.630445,-96.9807633333333,14.4,18.1,196,989.86,-11.5,78,0.98,0.0,1019.04,270.0
2019-11-22 05:30,50.6304466666667,-96.980765,14.3,18.0,198,989.73,-11.5,78,0.98,0.0,1018.91,270.0
2019-11-22 05:40,50.630435,-96.98076,15.3,19.0,194,989.49,-11.5,78,0.98,0.0,1018.67,270.0
2019-11-22 05:50,50.6304316666667,-96.9807616666667,15.2,19.5,194,989.45,-11.5,78,0.98,0.0,1018.62,270.0
2019-11-22 06:00,50.6304216666667,-96.980755,14.5,18.4,192,989.33,-11.4,79,0.98,0.0,1018.49,131.6
2019-11-22 06:10,50.6304266666667,-96.980755,13.9,17.9,196,989.25,-11.3,79,0.97,0.0,1018.40,131.6
2019-11-22 06:20,50.63043,-96.9807583333333,13.0,17.3,197,989.19,-11.1,78,0.97,0.0,1018.33,131.6
2019-11-22 06:30,50.6304316666667,-96.9807583333333,13.6,17.5,197,988.90,-11.0,79,0.97,0.0,1018.02,131.6
2019-11-22 06:40,50.630435,-96.98076,12.3,16.8,199,988.96,-11.0,80,0.96,0.0,1018.07,131.6
2019-11-22 06:50,50.6304366666667,-96.98076,11.8,15.4,198,988.76,-10.9,80,0.95,0.0,1017.87,131.6
2019-11-22 07:00,50.6304383333333,-96.9807616666667,11.7,15.2,198,988.60,-10.8,82,0.94,0.0,1017.69,131.7
2019-11-22 07:10,50.6304383333333,-96.9807816666667,11.7,15.7,202,988.64,-10.5,82,0.93,0.0,1017.72,131.7
2019-11-22 07:20,50.6304383333333,-96.9807766666667,11.5,14.5,201,988.56,-10.3,83,0.93,0.0,1017.62,131.7
2019-11-22 07:30,50.6304266666667,-96.9807816666667,12.3,16.3,199,988.36,-10.0,84,0.92,0.0,1017.40,131.7
2019-11-22 07:40,50.6304266666667,-96.9807816666667,12.5,16.9,200,988.13,-9.8,85,0.92,0.0,1017.15,131.7
2019-11-22 07:50,50.630455,-96.9807766666667,13.7,18.5,199,987.87,-9.8,85,0.93,0.0,1016.88,131.7
2019-11-22 08:00,50.6304383333333,-96.980785,12.1,16.5,203,987.78,-9.9,85,0.94,0.0,1016.78,90.0
2019-11-22 08:10,50.6304366666667,-96.9807766666667,11.6,16.3,205,987.71,-9.9,86,0.95,0.0,1016.70,90.0
2019-11-22 08:20,50.6304483333333,-96.980785,12.0,15.3,207,987.55,-9.9,86,0.96,0.0,1016.53,90.0
2019-11-22 08:30,50.630445,-96.98078,13.0,16.8,206,987.42,-9.9,87,0.96,0.0,1016.40,90.0
2019-11-22 08:40,50.6304416666667,-96.9807816666667,12.1,16.5,207,987.47,-9.9,87,0.97,0.0,1016.44,90.0
2019-11-22 08:50,50.63044,-96.9807783333333,12.5,17.0,202,987.39,-10.0,87,0.97,0.0,1016.36,90.0
2019-11-22 09:00,50.63044,-96.980775,11.9,15.3,204,987.36,-10.2,87,0.98,0.0,1016.32,345.5
2019-11-22 09:10,50.6304383333333,-96.980775,12.0,16.4,207,987.27,-10.2,87,0.98,0.0,1016.21,345.5
2019-11-22 09:20,50.6304366666667,-96.9807716666667,11.8,16.6,206,987.15,-10.1,87,0.99,0.0,1016.07,345.5
2019-11-22 09:30,50.6304216666667,-96.9807933333333,11.9,16.5,206,986.95,-10.1,87,0.99,0.0,1015.85,345.5
2019-11-22 09:40,50.63041,-96.9807533333333,12.8,17.4,207,986.73,-10.1,87,1.00,0.0,1015.63,345.5
2019-11-22 09:50,50.6304116666667,-96.9807616666667,12.4,16.5,207,986.50,-10.0,88,1.00,0.0,1015.39,345.5
2019-11-22 10:00,50.6304116666667,-96.9807683333333,13.0,17.6,207,986.29,-9.8,88,1.00,0.0,1015.16,193.3
2019-11-22 10:10,50.6304133333333,-96.980775,12.7,16.9,207,986.06,-9.6,88,1.00,0.0,1014.91,193.3
2019-11-22 10:20,50.63042,-96.980785,12.1,15.8,207,985.84,-9.5,88,0.99,0.0,1014.69,193.3
2019-11-22 10:30,50.6304466666667,-96.9807966666667,11.8,15.3,207,985.64,-9.4,88,0.99,0.0,1014.46,193.3
2019-11-22 10:40,50.630445,-96.98079,11.9,15.8,207,985.52,-9.3,88,0.99,0.0,1014.35,193.3
2019-11-22 10:50,50.6304433333333,-96.9807833333333,11.1,14.8,207,985.35,-9.1,89,0.99,0.0,1014.18,193.3
2019-11-22 11:00,50.6304416666667,-96.9807816666667,10.8,13.4,206,985.15,-8.8,89,0.99,0.0,1013.95,90.0
2019-11-22 11:10,50.6304416666667,-96.9807833333333,10.5,13.4,206,984.91,-8.3,89,0.98,0.0,1013.67,90.0
2019-11-22 11:20,50.6304233333333,-96.98077,10.6,13.6,206,984.81,-8.0,89,0.97,0.0,1013.55,90.0
2019-11-22 11:30,50.6304316666667,-96.9807783333333,10.7,13.7,207,984.70,-7.7,88,0.97,0.0,1013.43,90.0
2019-11-22 11:40,50.630445,-96.9807866666667,11.0,14.8,207,984.54,-7.7,88,0.96,0.0,1013.25,90.0
2019-11-22 11:50,50.6304266666667,-96.9807683333333,11.9,15.3,205,984.27,-7.5,88,0.96,0.0,1012.96,90.0
2019-11-22 12:00,50.6304233333333,-96.98079,12.2,17.2,205,983.98,-7.3,88,0.96,0.0,1012.63,221.2
2019-11-22 12:10,50.6304316666667,-96.980765,12.7,17.0,205,983.80,-7.2,88,0.96,0.0,1012.44,221.2
2019-11-22 12:20,50.630425,-96.9807616666667,12.9,16.5,208,983.66,-7.0,87,0.96,0.0,1012.27,221.2
2019-11-22 12:30,50.6304216666667,-96.9807633333333,14.0,19.1,210,983.51,-6.9,87,0.96,0.0,1012.11,221.2
2019-11-22 12:40,50.63042,-96.98077,14.7,18.7,210,983.34,-6.9,87,0.97,0.0,1011.93,221.2
2019-11-22 12:50,50.630405,-96.9807916666667,13.8,18.5,210,983.20,-6.9,87,0.97,0.0,1011.76,221.2
2019-11-22 13:00,50.63038,-96.98082,14.4,19.9,211,983.13,-6.6,86,0.97,0.0,1011.65,219.2
2019-11-22 13:10,50.6304016666667,-96.9808066666667,14.6,18.9,211,983.08,-6.6,86,0.97,0.0,1011.57,219.2
2019-11-22 13:20,50.6304066666667,-96.980795,14.9,18.7,211,982.94,-6.6,86,0.98,0.0,1011.42,219.2
2019-11-22 13:30,50.63041,-96.980795,15.3,18.9,211,982.78,-6.7,86,0.98,0.0,1011.26,219.2
2019-11-22 13:40,50.6304116666667,-96.9807933333333,15.0,19.3,210,982.62,-6.6,86,0.98,0.0,1011.08,219.2
2019-11-22 13:50,50.630415,-96.9807916666667,15.0,19.1,210,982.49,-6.4,86,0.97,0.0,1010.92,219.2
2019-11-22 14:00,50.630415,-96.98079,15.4,21.6,211,982.31,-6.2,85,0.97,0.0,1010.72,193.3
2019-11-22 14:10,50.6304166666667,-96.98079,15.2,20.6,210,982.15,-6.1,85,0.97,0.0,1010.54,193.3
2019-11-22 14:20,50.6304166666667,-96.9807883333333,15.2,19.9,208,982.10,-6.0,84,0.97,0.0,1010.48,193.3
2019-11-22 14:30,50.63038,-96.9807733333333,14.6,19.6,205,981.98,-6.1,84,0.97,0.0,1010.36,193.3
2019-11-22 14:40,50.6304183333333,-96.9807816666667,14.1,18.1,204,981.77,-5.9,84,0.98,0.0,1010.13,193.3
2019-11-22 14:50,50.63044,-96.9807716666667,14.0,18.5,207,981.56,-5.4,82,0.98,0.0,1009.88,193.3
2019-11-22 15:00,50.6304433333333,-96.98077,13.4,18.0,210,981.51,-5.2,81,0.98,0.0,1009.81,53.0
2019-11-22 15:10,50.6304416666667,-96.980765,14.5,18.9,208,981.43,-4.9,80,0.98,0.0,1009.71,53.0
2019-11-22 15:20,50.6304416666667,-96.9807616666667,13.0,17.5,213,981.48,-4.5,79,0.98,0.0,1009.74,53.0
2019-11-22 15:30,50.63044,-96.9807633333333,13.7,19.1,213,981.39,-4.0,78,0.98,0.0,1009.63,53.0
2019-11-22 15:40,50.6304383333333,-96.9807633333333,15.0,21.2,213,981.32,-3.7,77,0.98,0.0,1009.53,53.0
2019-11-22 15:50,50.630435,-96.980765,14.7,18.4,210,981.19,-3.5,76,0.98,0.0,1009.38,53.0
2019-11-22 16:00,50.6304233333333,-96.9807883333333,13.4,18.4,206,981.16,-3.3,76,0.98,0.0,1009.32,360.0
2019-11-22 16:10,50.630425,-96.98078,11.9,16.4,207,981.25,-3.2,75,0.98,0.0,1009.41,360.0
2019-11-22 16:20,50.6304166666667,-96.9807683333333,11.7,16.3,208,981.28,-2.9,74,0.97,0.0,1009.43,360.0
2019-11-22 16:30,50.63042,-96.980775,11.2,14.0,204,981.36,-2.7,74,0.97,0.0,1009.49,360.0
2019-11-22 16:40,50.630425,-96.9807766666667,11.9,15.2,202,981.26,-2.6,73,0.97,0.0,1009.36,360.0
2019-11-22 16:50,50.6304266666667,-96.980775,10.9,13.2,202,981.22,-2.3,73,0.97,0.0,1009.28,360.0
2019-11-22 17:00,50.6304283333333,-96.9807733333333,10.6,13.0,203,981.06,-1.8,71,0.96,0.0,1009.08,49.4
2019-11-22 17:10,50.6304316666667,-96.9807733333333,10.5,14.9,202,980.85,-1.2,70,0.96,0.0,1008.81,49.4
2019-11-22 17:20,50.6304666666667,-96.980765,10.7,14.8,203,980.71,-0.9,69,0.96,0.0,1008.62,49.4
2019-11-22 17:30,50.6304383333333,-96.98077,11.9,16.4,203,980.59,-0.7,68,0.96,0.0,1008.47,49.4
2019-11-22 17:40,50.6304383333333,-96.9807683333333,11.1,16.0,209,980.42,-0.2,67,0.96,0.0,1008.27,49.4
2019-11-22 17:50,50.6304383333333,-96.9807716666667,11.8,15.3,201,980.18,-0.1,67,0.95,0.0,1008.01,49.4
2019-11-22 18:00,50.6304383333333,-96.9807716666667,11.8,15.4,192,979.85,-0.4,69,0.94,0.0,1007.68,270.0
2019-11-22 18:10,50.6304383333333,-96.9807716666667,11.1,15.0,191,979.65,-0.6,71,0.94,0.0,1007.46,270.0
2019-11-22 18:20,50.6304366666667,-96.9807716666667,11.9,15.3,201,979.43,0.0,67,0.94,0.0,1007.20,270.0
2019-11-22 18:30,50.63043,-96.9807716666667,13.3,17.6,198,979.23,0.2,66,0.94,0.0,1006.97,270.0
2019-11-22 18:40,50.6304316666667,-96.9807666666667,13.6,18.4,199,979.04,0.4,66,0.94,0.0,1006.75,270.0
2019-11-22 18:50,50.6304333333333,-96.98077,12.5,18.4,198,978.79,0.4,66,0.94,0.0,1006.47,270.0
2019-11-22 19:00,50.6304416666667,-96.9807583333333,13.9,19.3,200,978.55,0.2,67,0.94,0.0,1006.20,57.2
2019-11-22 19:10,50.63044,-96.9807733333333,14.8,21.1,198,978.35,0.1,68,0.95,0.0,1005.99,57.2
2019-11-22 19:20,50.6304366666667,-96.9807783333333,17.2,22.4,199,978.20,0.0,68,0.96,0.0,1005.82,57.2
2019-11-22 19:30,50.63044,-96.9807783333333,16.3,21.5,200,978.07,0.1,68,0.97,0.0,1005.67,57.2
2019-11-22 19:40,50.6304383333333,-96.9807783333333,15.2,19.6,199,977.95,0.2,68,0.97,0.0,1005.53,57.2
2019-11-22 19:50,50.6304383333333,-96.98078,15.7,20.0,195,977.80,0.2,69,0.97,0.0,1005.39,57.2
2019-11-22 20:00,50.6304366666667,-96.9807783333333,16.0,20.3,196,977.52,0.1,70,0.98,0.0,1005.12,323.4
2019-11-22 20:10,50.630435,-96.9807766666667,14.5,21.4,198,977.46,0.3,69,0.98,0.0,1005.01,323.4
2019-11-22 20:20,50.630435,-96.980775,14.3,19.1,197,977.35,0.4,69,1.00,0.0,1004.89,323.4
2019-11-22 20:30,50.630435,-96.9807733333333,14.0,19.3,196,977.13,0.4,70,1.00,0.0,1004.66,323.4
2019-11-22 20:40,50.630435,-96.9807733333333,15.4,20.1,192,976.88,0.3,71,1.01,0.0,1004.40,323.4
2019-11-22 20:50,50.630435,-96.9807716666667,13.4,18.2,200,977.00,0.2,71,1.02,0.0,1004.53,323.4
2019-11-22 21:00,50.6304366666667,-96.9807716666667,14.6,18.7,197,976.86,0.1,71,1.02,0.0,1004.40,360.0
2019-11-22 21:10,50.6304366666667,-96.9807716666667,16.6,22.6,196,976.55,-0.1,72,1.02,0.0,1004.10,360.0
2019-11-22 21:20,50.6304366666667,-96.9807716666667,16.3,21.6,202,976.54,-0.4,73,1.02,0.0,1004.10,360.0
2019-11-22 21:30,50.6304366666667,-96.9807716666667,15.8,20.8,200,976.49,-0.3,72,1.01,0.0,1004.04,360.0
2019-11-22 21:40,50.6304416666667,-96.9807566666667,18.0,25.0,195,976.13,-0.4,73,1.02,0.0,1003.67,360.0
2019-11-22 21:50,50.6304416666667,-96.98077,17.1,22.2,198,976.12,-0.6,74,1.02,0.0,1003.67,360.0
2019-11-22 22:00,50.63044,-96.9807666666667,17.1,22.0,200,976.20,-0.8,74,1.02,0.0,1003.76,270.0
2019-11-22 22:10,50.6304383333333,-96.9807666666667,14.9,20.3,205,976.52,-0.9,74,1.02,0.0,1004.09,270.0
2019-11-22 22:20,50.63044,-96.9807683333333,16.2,21.8,206,976.57,-0.9,74,1.02,0.0,1004.14,270.0
2019-11-22 22:30,50.63044,-96.98077,16.2,20.8,201,976.42,-1.3,76,1.02,0.0,1004.01,270.0
2019-11-22 22:40,50.63044,-96.9807716666667,16.3,21.3,200,976.34,-1.5,77,1.02,0.0,1003.95,270.0
2019-11-22 22:50,50.63044,-96.9807716666667,17.2,22.1,200,976.18,-1.7,77,1.02,0.0,1003.79,270.0
2019-11-22 23:00,50.63044,-96.9807716666667,17.5,23.4,199,975.83,-1.8,78,1.03,0.0,1003.45,54.7
2019-11-22 23:10,50.6304416666667,-96.9807716666667,16.9,24.6,196,975.63,-1.9,78,1.04,0.0,1003.27,54.7
2019-11-22 23:20,50.6304416666667,-96.9807716666667,16.5,21.8,193,975.39,-2.3,80,1.05,0.0,1003.03,54.7
2019-11-22 23:30,50.630475,-96.980765,16.3,20.0,191,975.10,-2.5,82,1.07,0.0,1002.75,54.7
2019-11-22 23:40,50.6304566666667,-96.98078,16.2,22.8,192,974.85,-2.6,82,1.07,0.0,1002.51,54.7
